Torna al catalogo

COSMOS 1651

GLONASS

AttivoNavigazioneMEO
NORAD 15698·PAYLOAD·🇷🇺 Russia

Lanciato May 17, 1985 da Baikonur Cosmodrome

Loading…

Prossimi Passaggi (prossime 24 ore)

TLE

AggiornatoSource: Space-Track

Epoca: Sep 8, 2026, 09:12 UTC

1 15698U 85037B   26251.38335932  .00000034  00000-0  00000-0 0  9991
2 15698  64.9325  69.9904 0015198  28.2156 345.1179  2.13123300321567

Traccia COSMOS 1651 in tempo reale con AllMySat

Download on the App Store